Location: La Tine
(46.4708°N, 7.0525°E)
Time: 17:14:42
(UTC+00:00)

Cosmos 1707 - Pass Details

Date: 18 September 2020
Orbit: 515 x 530 km, 82.5° (Epoch: 30 October)

Event Time Altitude Azimuth Distance (km) Brightness Sun altitude
Rises 19:16:05 0° 346° (NNW) 2,653 6.8 -17.5°
Reaches altitude 10° 19:18:16 10° 341° (NNW) 1,758 5.9 -17.8°
Maximum altitude 19:22:00 51° 266° (W) 656 3.5 -18.4°
Drops below altitude 10° 19:25:43 10° 189° (S) 1,739 5.2 -19.0°
Enters shadow 19:25:53 - 189° (S) 1,805 5.3 -19.1°
